FW5810 Weather Reports


time (UTC)temp
F
wind
direction
speed
knots
gust
knots
rain 1hr
in
rain 24hr
in
rain mn
in
humidity
%
barometer
mb
20260504202430 73 206 4.3 10.4 0.00 0.00 0.00 43 1006.4
20260504201926 72 147 4.3 9.6 0.00 0.00 0.00 42 1006.5
20260504201424 72 171 6.1 9.6 0.00 0.00 0.00 41 1006.6
20260504200921 72 226 4.3 12.2 0.00 0.00 0.00 43 1006.4
20260504200418 72 213 7.8 13.0 0.00 0.00 0.00 42 1006.6
20260504195915 72 215 5.2 7.0 0.00 0.00 0.00 42 1006.7
20260504195410 72 219 5.2 8.7 0.00 0.00 0.00 45 1006.9
20260504194907 72 213 5.2 9.6 0.00 0.00 0.00 42 1006.7
20260504194403 72 194 7.0 12.2 0.00 0.00 0.00 42 1006.9
20260504193859 72 214 6.1 12.2 0.00 0.00 0.00 45 1006.9
20260504193356 71 201 7.8 10.4 0.00 0.00 0.00 43 1007.1
20260504192855 71 224 7.8 10.4 0.00 0.00 0.00 43 1007.4
20260504192352 71 220 6.1 10.4 0.00 0.00 0.00 45 1007.1
20260504191850 71 212 7.0 13.0 0.00 0.00 0.00 45 1007.4
20260504191348 71 260 8.7 12.2 0.00 0.00 0.00 41 1007.4
20260504190843 70 177 7.0 10.4 0.00 0.00 0.00 44 1007.6
20260504190339 71 187 8.7 13.0 0.00 0.00 0.00 45 1007.6
20260504185836 71 233 2.6 6.1 0.00 0.00 0.00 45 1007.5
20260504185333 71 198 4.3 7.0 0.00 0.00 0.00 43 1007.6
20260504184829 71 261 4.3 15.6 0.00 0.00 0.00 43 1007.7
20260504184326 70 154 4.3 8.7 0.00 0.00 0.00 45 1007.9
20260504183821 70 223 5.2 10.4 0.00 0.00 0.00 44 1007.7
20260504183319 69 207 8.7 13.9 0.00 0.00 0.00 44 1007.8
20260504182817 69 116 9.6 10.4 0.00 0.00 0.00 43 1007.7
20260504182314 69 214 7.8 13.0 0.00 0.00 0.00 43 1007.9
20260504181811 69 277 3.5 12.2 0.00 0.00 0.00 44 1008.0
20260504181308 69 247 7.0 13.9 0.00 0.00 0.00 42 1008.2
20260504180807 70 232 8.7 13.9 0.00 0.00 0.00 43 1008.0
20260504180305 69 182 4.3 13.0 0.00 0.00 0.00 42 1008.2
20260504175803 69 55 4.3 10.4 0.00 0.00 0.00 43 1008.1
20260504175259 69 231 6.1 10.4 0.00 0.00 0.00 42 1008.1
20260504174757 69 310 7.0 13.9 0.00 0.00 0.00 41 1008.2
20260504174255 68 247 7.8 10.4 0.00 0.00 0.00 47 1008.3
20260504173751 68 124 5.2 13.0 0.00 0.00 0.00 42 1008.2
20260504173248 69 165 4.3 7.0 0.00 0.00 0.00 42 1008.3
20260504172745 68 152 4.3 9.6 0.00 0.00 0.00 44 1008.3
20260504172242 68 168 6.1 13.0 0.00 0.00 0.00 42 1008.6
20260504171738 68 205 4.3 10.4 0.00 0.00 0.00 43 1008.3
20260504171235 68 286 4.3 8.7 0.00 0.00 0.00 46 1008.5
20260504170732 68 126 1.7 9.6 0.00 0.00 0.00 45 1008.6
20260504170229 68 166 7.0 13.0 0.00 0.00 0.00 43 1008.5
20260504160147 65 217 4.3 13.0 0.00 0.00 0.00 45 1009.3
20260504151115 63 265 7.0 10.4 0.00 0.00 0.00 47 1009.9
20260504150613 62 214 6.1 13.0 0.00 0.00 0.00 50 1009.7
20260504150109 62 242 7.0 13.0 0.00 0.00 0.00 49 1009.8
20260504141038 60 216 3.5 7.0 0.00 0.00 0.00 48 1009.7
20260504140534 60 63 0.9 9.6 0.00 0.00 0.00 50 1009.9
20260504130459 57 237 2.6 7.0 0.00 0.00 0.00 50 1010.3
20260504110345 51 208 3.5 4.3 0.00 0.00 0.00 56 1010.3
20260504100303 49 229 2.6 3.5 0.00 0.00 0.00 58 1010.1
20260504081656 51 221 2.6 6.1 0.00 0.00 0.00 54 1010.8
20260504081152 51 170 2.6 6.1 0.00 0.00 0.00 53 1010.8
20260504080649 51 142 2.6 8.7 0.00 0.00 0.00 53 1010.8
20260504080145 51 218 3.5 7.0 0.00 0.00 0.00 54 1010.9
20260504070113 51 258 7.0 10.4 0.00 0.00 0.00 53 1011.8
20260504050502 50 195 2.6 3.5 0.00 0.00 0.00 58 1013.1
20260504045959 50 228 1.7 4.3 0.00 0.00 0.00 58 1013.1
20260504045455 50 180 1.7 2.6 0.00 0.00 0.00 58 1013.1
20260504044951 50 212 0.9 0.9 0.00 0.00 0.00 58 1013.0
20260504044448 50 144 2.6 3.5 0.00 0.00 0.00 58 1013.1
20260504043946 50 215 0.9 6.1 0.00 0.00 0.00 57 1013.1
20260504043442 50 189 2.6 3.5 0.00 0.00 0.00 57 1013.2
20260504042940 50 167 1.7 3.5 0.00 0.00 0.00 57 1013.3
20260504042436 50 216 4.3 4.3 0.00 0.00 0.00 56 1013.4
20260504041933 50 196 0.9 2.6 0.00 0.00 0.00 57 1013.3
20260504041429 50 191 0.9 2.6 0.00 0.00 0.00 56 1013.2
20260504040925 50 214 1.7 3.5 0.00 0.00 0.00 56 1013.4
20260504040424 51 200 0.9 0.9 0.00 0.00 0.00 56 1013.4
20260504035919 51 203 1.7 2.6 0.00 0.00 0.00 55 1013.4
20260504035417 51 222 2.6 2.6 0.00 0.00 0.00 55 1013.5
20260504034914 51 195 1.7 0.9 0.00 0.00 0.00 55 1013.4
20260504034412 51 213 0.9 0.9 0.00 0.00 0.00 56 1013.4
20260504033908 51 214 1.7 0.9 0.00 0.00 0.00 54 1013.5
20260504033406 51 226 1.7 3.5 0.00 0.00 0.00 54 1013.7
20260504032902 51 204 2.6 3.5 0.00 0.00 0.00 54 1013.7
20260504032359 51 178 0.9 0.9 0.00 0.00 0.00 54 1013.8
20260504031855 51 212 2.6 4.3 0.00 0.00 0.00 53 1013.7
20260504031353 51 221 2.6 3.5 0.00 0.00 0.00 54 1013.8
20260504030849 51 221 2.6 4.3 0.00 0.00 0.00 52 1013.9
20260504030347 51 289 0.0 0.0 0.00 0.00 0.00 53 1014.2
20260504025842 51 297 0.9 6.1 0.00 0.00 0.00 52 1014.1
20260504025340 51 213 1.7 3.5 0.00 0.00 0.00 52 1014.0
20260504024836 51 245 1.7 6.1 0.00 0.00 0.00 52 1014.0
20260504024333 50 310 2.6 6.1 0.00 0.00 0.00 51 1014.3
20260504023829 50 241 3.5 6.1 0.00 0.00 0.00 51 1014.1
20260504023327 50 179 1.7 3.5 0.00 0.00 0.00 51 1014.3
20260504022822 50 226 3.5 4.3 0.00 0.00 0.00 51 1014.1
20260504022319 49 223 2.6 3.5 0.00 0.00 0.00 52 1014.1
20260504021816 49 211 1.7 2.6 0.00 0.00 0.00 52 1013.8
20260504021314 49 189 0.9 0.9 0.00 0.00 0.00 51 1013.8
20260504020810 49 189 0.9 0.9 0.00 0.00 0.00 51 1013.7
20260504020307 50 188 0.9 0.9 0.00 0.00 0.00 51 1013.8
20260504015802 50 189 0.9 0.9 0.00 0.00 0.00 51 1013.7
20260504015259 50 189 0.9 0.9 0.00 0.00 0.00 49 1013.7
20260504014755 50 190 0.9 0.9 0.00 0.00 0.00 49 1013.5
20260504014251 51 187 0.0 0.9 0.00 0.00 0.00 48 1013.5
20260504013749 51 183 0.9 0.9 0.00 0.00 0.00 48 1013.4
20260504013247 51 183 1.7 0.9 0.00 0.00 0.00 48 1013.3
20260504012743 51 186 0.0 0.9 0.00 0.00 0.00 47 1013.3
20260504012241 52 198 0.9 0.9 0.00 0.00 0.00 46 1013.4
20260504011737 53 197 0.9 0.9 0.00 0.00 0.00 44 1013.5
20260504011235 52 253 0.9 2.6 0.00 0.00 0.00 45 1013.2
20260504010731 53 215 1.7 2.6 0.00 0.00 0.00 44 1013.4
20260504010226 53 161 0.9 0.9 0.00 0.00 0.00 43 1013.4
20260504005723 54 208 2.6 2.6 0.00 0.00 0.00 41 1013.4
20260504005220 54 213 2.6 4.3 0.00 0.00 0.00 41 1013.5
20260504004718 54 212 1.7 3.5 0.00 0.00 0.00 41 1013.4
20260504004215 54 210 1.7 2.6 0.00 0.00 0.00 40 1013.4
20260504003712 55 172 0.0 2.6 0.00 0.00 0.00 41 1013.3
20260504003208 55 223 3.5 4.3 0.00 0.00 0.00 39 1013.4
20260504002705 55 220 2.6 2.6 0.00 0.00 0.00 40 1013.4
20260504002202 55 244 0.9 3.5 0.00 0.00 0.00 40 1013.4
20260504001700 56 228 2.6 4.3 0.00 0.00 0.00 39 1013.4
20260504001156 56 255 2.6 4.3 0.00 0.00 0.00 38 1013.5
20260504000653 56 239 1.7 3.5 0.00 0.00 0.00 39 1013.3
20260504000150 57 224 3.5 9.6 0.00 0.00 0.00 37 1013.5
20260503235649 57 240 5.2 9.6 0.00 0.00 0.00 37 1013.4
20260503235145 57 190 7.8 9.6 0.00 0.00 0.00 37 1013.5
20260503234643 57 267 2.6 12.2 0.00 0.00 0.00 38 1013.4
20260503234141 57 187 2.6 7.0 0.00 0.00 0.00 37 1013.4
20260503233638 57 246 5.2 12.2 0.00 0.00 0.00 36 1013.7
20260503233133 57 221 2.6 3.5 0.00 0.00 0.00 37 1013.8
20260503232630 57 202 4.3 7.0 0.00 0.00 0.00 36 1013.7
20260503232128 57 332 2.6 8.7 0.00 0.00 0.00 36 1013.4
20260503231626 57 239 4.3 10.4 0.00 0.00 0.00 37 1013.5
20260503231122 57 236 2.6 3.5 0.00 0.00 0.00 36 1013.5
20260503230619 57 278 7.0 8.7 0.00 0.00 0.00 35 1013.5
20260503230116 57 219 3.5 6.1 0.00 0.00 0.00 37 1013.5
20260503225614 57 187 4.3 7.0 0.00 0.00 0.00 37 1013.5
20260503225113 57 224 4.3 13.9 0.00 0.00 0.00 36 1013.7
20260503224611 57 248 3.5 4.3 0.00 0.00 0.00 36 1013.8
20260503224109 58 272 2.6 3.5 0.00 0.00 0.00 37 1013.7
20260503223606 58 246 2.6 10.4 0.00 0.00 0.00 36 1013.9
20260503223102 58 257 3.5 8.7 0.00 0.00 0.00 35 1013.8
20260503222600 58 304 5.2 8.7 0.00 0.00 0.00 34 1013.8
20260503222058 58 234 5.2 9.6 0.00 0.00 0.00 34 1013.7
20260503221555 58 251 2.6 4.3 0.00 0.00 0.00 36 1013.8
20260503221053 58 177 2.6 13.0 0.00 0.00 0.00 34 1013.9
20260503220549 58 252 4.3 8.7 0.00 0.00 0.00 36 1014.0
20260503220046 58 239 5.2 9.6 0.00 0.00 0.00 36 1013.9
20260503215543 58 224 10.4 15.6 0.00 0.00 0.00 34 1013.8
20260503215040 59 244 4.3 15.6 0.00 0.00 0.00 35 1013.8
20260503214538 59 242 11.3 16.5 0.00 0.00 0.00 34 1014.0
20260503214034 59 291 4.3 9.6 0.00 0.00 0.00 34 1013.9
20260503213533 59 284 2.6 3.5 0.00 0.00 0.00 34 1013.8
20260503213029 59 290 7.0 13.0 0.00 0.00 0.00 35 1013.9
20260503212527 59 224 4.3 13.0 0.00 0.00 0.00 35 1013.8
20260503212024 59 260 5.2 10.4 0.00 0.00 0.00 34 1013.9
20260503211521 58 231 5.2 10.4 0.00 0.00 0.00 35 1014.0
20260503211016 59 262 2.6 13.9 0.00 0.00 0.00 36 1013.9
20260503210514 60 268 5.2 12.2 0.00 0.00 0.00 33 1013.8
20260503210009 60 266 8.7 12.2 0.00 0.00 0.00 33 1013.8
20260503205506 59 239 2.6 13.9 0.00 0.00 0.00 33 1013.5
20260503205002 59 287 7.8 15.6 0.00 0.00 0.00 33 1013.8
20260503204459 59 264 3.5 12.2 0.00 0.00 0.00 35 1013.9
20260503203956 59 280 2.6 12.2 0.00 0.00 0.00 35 1013.9
20260503203454 59 240 3.5 13.9 0.00 0.00 0.00 35 1014.1
20260503202950 59 216 9.6 13.0 0.00 0.00 0.00 34 1014.2